Voltar ao catálogo

STARLINK-35289

AtivoComunicaçõesSSO
NORAD 65809·PAYLOAD·🇺🇸 United States

Lançado Sep 26, 2025 de Vandenberg Space Force Base

Loading…

Próximas Passagens (próximas 24 horas)

TLE

AtualizadoSource: CelesTrak SupGP

Época: Sep 14, 2026, 20:59 UTC

1 65809C 25218U   26257.87479167  .00012492  00000+0  38796-3 0  2577
2 65809  97.2843 115.3242 0001650  89.3037 182.0560 15.33418259    17

Acompanhe STARLINK-35289 em tempo real com AllMySat

Download on the App Store